SCP
0 0 0 0 0 0 0 0 0 0 0 0 0 0 0 0 0 0 0 0 0 0 0 0 0 0 0 0 0 0 0 0 0 0 0 0 0 0 0 0 0 0 0 0 0 0 0 0 0 0 0 0 0 0
0 0 0 0 0 0 0 0 0 0 0 0 0 0 0 0 0 0 0 -0 0 0 0 0 0 0 0 0 0 0 0 0 0 0 0 0 0 0 0 0 0 0 0 0 0 0 0 0 0 0 0 0 0 0
0 0 0 0 0 0 0 0 0 0 0 0 0 0 0 0 0 0 0 0 0 0 0 0 0 0 0 0 0 0 0 0 0 0 0 0 0 0 0 0 0 0 0 0 0 0 0 0 0 0 0 0 0 0
0 0 0 0 0 0 0 0 0 0 0 0 0 0 0 0 0 0 0 0 0 0 0 0 0 0 0 0 0 0 0 0 0 0 0 0 0 0 0 0 0 0 0 0 0 0 0 0 0 0 0 0 0 0
0 0 0 0 0 0 0 0 0 0 0 0 0 0 0 0 0 0 0 0 0 0 0 0 0 0 0 0 0 0 0 0 0 0 0 0 0 0 0 0 0 0 0 0 0 0 0 0 0 0 0 0 0 0
0 0 0 0 0 0 0 0 0 0 0 0 0 0 0 0 0 0 0 0 0 0 0 0 0 0 0 0 0 0 0 0 0 0 0 0 0 0 0 0 0 0 0 0 0 0 0 0 0 0 0 0 0 0
0 0 0 0 0 0 0 0 0 0 0 0 0 0 0 0 0 0 0 0 0 0 0 0 0 0 0 0 0 0 0 0 0 0 0 0 0 0 0 0 0 0 0 0 0 0 0 0 0 0 0 0 0 0
0 0 0 0 0 0 0 0 0 0 0 0 0 0 0 0 0 0 0 0 0 0 0 0 0 0 0 0 0 0 0 0 0 0 0 0 0 0 0 0 0 0 0 0 0 0 0 0 0 0 0 0 0 0
0 0 0 0 0 0 0 0 0 0 0 0 0 0 0 0 0 0 0 0 0 0 0 0 0 0 0 0 0 0 0 0 0 0 0 0 0 0 0 0 0 0 0 0 0 0 0 0 0 0 0 0 0 -0
0 0 0 0 0 0 0 0 0 0 0 0 0 0 0 0 0 0 0 0 0 0 0 0 0 0 0 0 0 0 0 0 0 0 0 0 0 0 0 0 0 0 0 0 0 0 0 0 0 0 0 0 0 -0
0 0 0 0 0 0 0 0 0 0 0 0 0 0 0 0 0 0 0 0 0 0 0 0 0 0 0 0 0 0 0 0 0 0 0 0 0 0 0 0 0 0 0 0 0 0 0 0 0 0 0 0 -0 0
0 0 0 0 0 0 0 0 0 0 0 0 0 0 0 0 0 0 0 0 0 0 0 0 0 0 0 0 0 0 0 0 0 0 0 0 0 0 0 0 0 0 0 0 0 0 0 0 0 0 0 -0 -0 0
0 0 0 0 0 0 0 0 0 0 0 0 0 0 0 0 0 0 0 0 0 0 0 0 0 0 0 0 0 0 0 0 0 0 0 0 0 0 0 0 0 0 0 0 0 0 0 0 0 0 -0 0 0 0
0 0 0 0 0 0 0 0 0 0 0 0 0 0 0 0 0 0 0 0 0 0 0 0 0 0 0 0 0 0 0 0 0 0 0 0 0 0 0 0 0 0 0 0 0 -0 0 0 0 0 0 -0 0 -0
0 0 0 0 0 0 0 0 0 0 0 0 0 0 0 0 0 0 0 0 0 0 0 0 0 0 0 0 0 0 0 0 0 0 0 0 0 0 0 0 0 0 0 0 0 0 0 0 0 0 -0 -0 0 -0
0 0 0 0 0 0 0 0 0 0 0 0 0 0 0 0 0 0 0 0 0 0 0 0 0 0 0 0 0 0 0 0 0 0 0 0 0 0 0 0 0 0 0 0 0 0 0 0 0 0 -0 -0 -0 -0
0 0 0 0 0 0 0 0 0 0 0 0 0 0 0 0 0 0 0 0 0 0 0 0 0 0 0 0 0 0 0 0 0 0 0 0 0 0 0 0 0 0 0 0 0 0 0 0 0 0 -0 -0 -0 0
0 0 0 0 0 0 0 0 0 0 0 0 0 0 0 0 0 0 0 0 0 0 0 0 0 0 0 0 0 0 0 0 0 0 0 0 0 0 0 0 0 0 0 0 0 0 0 0 0 -0 -0 -0 0 -0
0 0 0 0 0 0 0 0 0 0 0 0 0 0 0 0 0 0 -0 0 0 0 0 0 0 0 0 0 0 0 0 0 0 0 0 0 0 0 0 0 0 0 0 -0 0 0 0 0 0 -0 -0 -0 -0 -0
0 0 0 0 0 0 0 0 0 0 0 0 0 0 0 0 0 0 0 0 0 0 0 0 0 0 0 0 0 0 0 0 0 0 0 0 0 0 0 0 0 0 -0 0 0 0 0 -0 0 -0 -0 0 -0 -0
0 0 0 0 0 0 0 0 0 0 0 0 0 0 0 0 0 0 0 0 0 0 0 0 0 0 0 0 0 0 0 0 0 0 0 0 0 0 0 0 0 -0 -0 -0 0 0 -0 0 0 -0 0 0 -0 -0
0 0 0 0 0 0 0 0 0 0 0 0 0 0 0 0 0 0 0 0 0 0 0 0 0 0 0 0 0 0 0 0 0 0 0 0 0 0 0 -0 -0 -0 -0 0 0 -0 0 -0 0 -0 0 -0 -0 -0
0 0 0 0 0 0 0 0 0 0 0 0 0 0 0 0 0 0 0 0 0 0 0 0 0 0 0 0 0 0 0 0 0 0 0 0 0 0 -0 0 -0 -0 0 0 0 0 -0 -0 -0 -0 0 -0 -0 0
0 0 0 0 0 0 0 0 0 0 0 0 0 0 0 0 0 0 0 0 0 0 0 0 0 0 0 0 0 0 0 0 0 0 -0 -0 -0 0 0 -0 0 0 0 0 -0 0 -0 0 -0 -0 0 0 0 0
0 0 0 0 0 0 0 0 0 0 0 0 0 0 0 0 0 0 0 0 0 0 0 0 0 0 0 -0 0 0 0 -0 0 0 0 0 -0 -0 0 -0 0 -0 -0 -0 -0 -0 -0 0 0 0 -0 0 -0 0
0 0 0 0 0 0 0 0 0 0 0 0 0 0 0 0 0 0 0 0 0 0 0 0 0 0 0 -0 0 0 0 -0 0 -0 -0 -0 -0 -0 -0 -0 0 -0 -0 -0 -0 0 -0 -0 -0 -0 0 0 -0 -0
0 0 0 0 0 0 0 0 0 0 0 0 0 0 0 0 0 0 0 0 0 0 0 0 0 0 0 0 0 0 0 0 0 0 -0 -0 0 -0 -0 -0 -0 -0 -0 0 0 0 -0 -0 -0 -0 -0 0 -0 -0
0 0 0 0 0 0 0 0 0 0 0 0 0 0 0 0 0 0 0 0 0 0 0 0 0 0 0 0 0 0 0 -0 0 0 -0 -0 -0 -0 0 0 0 -0 0 0 0 0 -0 -0 0 0 0 -0 0 0
0 0 0 0 0 0 0 0 0 0 0 0 0 0 0 0 0 0 -0 0 0 0 0 0 0 0 0 0 0 0 0 0 0 0 0 0 0 0 0 0 0 0 0 0 0 0 -0 -0 -0 0 0 0 0 0
0 0 0 0 -0 -0 -0 -0 0 0 0 0 0 0 -0 0 0 0 -0 -0 -0 -0 0 0 0 0 0 0 0 0 0 0 0 -0 0 0 0 0 0 0 0 0 0 -0 -0 0 -0 -0 0 0 0 0 0 0
-0 -0 0 0 0 -0 -0 -0 -0 0 0 0 0 -0 -0 -0 -0 -0 -0 -0 -0 -0 -0 -0 -0 0 0 0 0 0 0 0 -0 -0 0 0 0 0 0 -0 0 -0 0 0 0 0 0 0 0 0 0 0 0 0
0 0 0 0 0 0 0 0 -0 0 0 0 0 0 0 0 0 0 0 0 0 0 0 0 -0 0 0 0 0 0 0 0 -0 -0 -0 -0 0 0 0 -0 0 -0 0 0 0 0 0 0 -0 0 0 0 -0 0
0 0 0 0 0 0 0 0 0 0 0 0 0 0 0 0 0 0 0 0 0 0 0 0 0 0 0 0 0 0 0 0 -0 -0 -0 0 0 0 0 0 0 0 0 0 0 0 0 -0 -0 0 0 0 0 0
Wind_Speed_500mb
65 63 57 56 53 49 45 41 35 31 28 24 23 17 14 15 15 15 9 24 12 11 25 9 4 9 8 9 11 15 15 9 17 15 10 10 13 11 18 19 24 25 12 19 14 23 13 59 38 11 22 52 58 60
59 63 55 53 52 50 47 45 42 36 29 25 23 19 13 14 14 10 9 24 29 9 13 16 22 22 14 7 10 7 10 11 12 8 10 8 20 14 21 18 17 7 14 9 12 14 41 44 38 48 49 55 61 66
56 53 51 45 45 44 45 45 45 40 33 29 26 25 16 15 13 11 9 13 23 19 32 25 14 9 9 11 11 9 9 6 1 6 16 8 13 10 13 18 23 28 30 14 23 18 33 43 51 56 60 63 64 60
52 58 55 56 49 43 40 41 44 42 38 32 31 28 23 17 15 14 7 14 13 15 12 9 12 5 10 11 12 17 11 8 11 14 22 15 12 16 16 27 23 20 24 10 22 31 53 37 55 61 64 63 59 63
53 54 53 53 53 51 46 41 44 44 42 36 37 31 25 17 16 17 22 10 8 3 13 14 15 18 13 11 12 13 14 13 18 22 20 17 31 14 22 26 15 12 8 7 16 40 34 50 56 58 55 65 60 56
63 59 57 58 59 49 52 48 45 47 42 40 38 32 26 16 14 10 4 4 7 9 10 8 5 12 15 14 15 17 19 19 20 24 24 21 30 17 10 15 31 21 24 30 25 39 45 52 54 55 60 59 54 56
67 62 56 55 53 48 50 53 46 50 47 41 42 35 28 26 20 11 4 15 15 11 8 13 8 15 18 19 21 24 23 21 25 27 25 33 24 10 13 19 36 22 26 24 31 39 48 49 47 55 58 63 60 59
64 60 57 50 50 55 55 49 48 45 50 43 45 39 38 32 28 27 29 27 22 7 10 8 7 14 25 20 28 30 26 26 27 29 27 28 19 15 7 16 7 17 21 28 37 40 47 49 54 56 60 57 66 63
53 59 59 52 51 49 52 51 47 49 46 48 46 42 40 34 19 19 23 20 15 11 10 12 12 3 15 18 14 11 19 16 28 19 30 15 10 10 22 18 13 16 22 33 40 46 51 54 52 59 54 61 60 66
43 56 59 56 49 50 49 50 48 46 49 57 50 20 11 16 19 13 6 8 10 14 16 15 25 14 13 15 14 14 14 13 11 16 13 9 19 32 20 21 16 20 27 32 41 47 53 43 50 49 45 58 57 63
44 46 53 54 54 47 47 43 47 49 43 58 24 17 20 22 16 11 12 16 18 12 19 21 35 19 17 10 9 1 6 9 9 10 10 6 7 17 10 11 14 19 28 33 37 45 35 42 52 44 46 59 55 60
54 46 44 49 52 51 38 39 51 48 45 39 26 34 33 12 10 11 9 14 16 12 24 29 26 30 12 4 10 8 7 7 9 2 6 7 9 10 13 7 14 19 29 37 43 46 41 38 42 41 49 50 56 60
51 51 47 47 47 50 39 37 49 56 53 46 13 19 15 12 10 11 16 13 13 17 26 34 24 23 10 10 11 5 5 10 15 8 10 9 15 11 9 3 17 23 30 37 43 48 37 38 41 45 57 56 48 58
49 49 44 46 47 52 34 43 69 62 37 14 18 13 13 11 15 17 23 17 21 29 39 38 33 19 13 10 9 8 9 8 8 6 10 12 15 11 11 14 19 28 32 37 41 49 38 40 36 38 47 45 44 52
46 49 45 46 49 54 37 69 83 70 18 16 16 13 17 26 32 28 30 20 31 35 40 33 21 16 11 6 8 9 7 9 5 9 9 10 7 13 5 11 22 28 34 39 41 49 37 33 30 33 48 41 47 49
40 38 51 46 48 50 50 92 81 34 17 16 15 8 20 22 31 17 31 33 32 40 38 28 12 8 11 8 13 15 9 11 17 5 2 5 9 14 9 16 25 31 35 42 47 48 35 28 29 29 47 43 45 41
40 43 40 50 50 50 84 88 49 13 17 10 11 31 17 25 23 19 10 16 28 33 18 11 15 13 11 10 21 14 21 20 23 9 9 13 13 7 17 26 32 37 37 42 46 45 34 22 23 34 45 44 38 36
51 41 43 52 71 104 70 27 21 15 7 14 12 24 23 18 20 27 38 27 36 30 29 9 14 18 12 16 17 14 15 9 14 17 11 17 14 13 22 26 34 39 41 44 39 38 25 21 19 32 38 39 39 37
46 42 52 66 90 63 16 14 12 14 14 19 12 20 21 27 30 32 39 36 37 28 21 13 10 16 18 27 30 33 33 27 14 21 18 20 20 19 23 30 31 34 34 39 44 20 18 19 12 27 47 34 36 38
38 54 88 95 85 15 12 10 18 8 11 16 20 18 27 36 32 27 24 30 31 31 18 12 20 27 23 22 20 21 24 22 24 27 31 32 26 22 29 26 30 32 35 41 8 17 9 14 11 26 47 32 34 37
97 81 81 66 34 15 10 13 12 13 14 17 33 32 25 30 31 34 34 32 32 40 29 36 38 36 29 28 27 23 26 27 29 31 34 32 27 28 31 34 36 34 32 34 12 17 20 18 7 22 47 28 28 29
73 68 50 29 12 9 7 7 10 17 16 19 35 30 20 31 32 36 34 35 40 32 38 46 44 39 37 37 33 29 31 28 30 34 38 37 36 34 29 28 30 28 33 15 11 12 13 11 4 13 40 31 26 28
62 45 19 13 9 6 7 14 9 13 11 14 21 16 19 22 33 34 24 37 46 47 45 45 41 39 38 34 31 31 27 25 28 29 29 29 28 28 30 32 32 24 16 9 8 10 4 14 5 12 32 30 26 31
25 9 10 12 8 7 13 7 6 7 8 11 11 13 13 14 19 18 15 28 33 31 30 32 32 36 32 31 33 34 33 31 29 26 26 26 28 23 26 25 34 15 3 1 5 4 5 9 12 18 28 35 25 28
7 6 8 3 7 11 10 13 12 11 12 13 13 8 8 15 8 11 14 23 27 28 26 28 29 30 33 32 33 27 23 26 28 26 24 24 31 19 22 19 15 8 10 10 2 16 11 16 18 19 13 27 40 28
4 8 11 13 13 10 11 12 17 14 10 15 11 9 5 4 6 11 7 12 9 11 4 5 16 16 21 24 23 21 24 23 22 16 15 17 16 5 3 4 6 5 5 7 10 14 18 16 17 15 18 14 20 29
4 8 15 15 17 16 8 8 13 16 11 8 6 9 7 7 10 1 11 9 12 7 6 13 11 1 7 32 19 17 14 14 11 3 10 26 18 4 4 9 5 5 21 30 24 17 20 21 21 22 24 24 22 21
6 4 11 16 8 11 3 6 4 5 4 4 5 11 7 7 6 8 10 10 11 6 5 5 1 5 11 8 3 19 16 11 8 9 5 13 12 17 7 11 13 4 6 13 12 24 25 26 25 26 26 27 26 25
9 8 6 10 12 6 5 5 6 4 2 3 3 5 3 9 11 14 12 4 4 4 4 3 3 4 6 8 2 10 13 13 17 16 10 12 17 16 7 9 11 16 25 26 36 24 30 29 28 27 26 25 26 25
7 6 5 3 9 8 10 9 6 5 3 5 5 11 12 5 7 3 12 22 22 19 20 20 19 18 15 14 13 12 9 12 8 12 7 2 10 13 5 7 11 23 28 28 28 30 35 28 28 28 27 26 25 29
3 1 5 3 1 5 3 2 4 5 3 5 5 5 6 10 28 15 15 17 22 28 29 31 35 37 32 27 25 22 22 18 14 7 9 8 4 6 10 8 20 36 29 26 23 25 28 27 25 22 21 24 24 29
9 9 8 8 5 10 14 7 6 3 1 3 3 3 2 2 5 6 14 6 8 14 19 21 25 31 40 42 30 25 17 10 22 18 16 15 12 11 2 13 32 40 29 25 25 26 23 24 28 24 19 17 28 22
9 8 9 4 5 8 12 11 10 8 5 3 4 4 4 4 4 8 20 25 13 6 14 16 15 23 34 40 25 20 17 14 12 13 17 19 17 9 9 4 20 23 22 20 23 24 25 29 26 23 24 24 24 23
Wind_Direction_500mb
241 243 245 246 249 249 246 248 253 262 269 277 298 301 320 334 346 11 291 327 347 289 299 317 304 307 299 275 303 16 294 183 261 275 309 336 314 326 318 312 312 306 292 298 313 304 308 348 356 357 303 309 317 321
250 244 240 241 244 243 242 241 247 253 258 265 277 278 296 321 335 18 27 339 325 278 269 299 283 251 242 272 291 267 305 287 347 311 342 324 318 317 321 309 319 319 325 301 291 282 304 335 333 331 326 320 318 317
238 234 234 235 230 237 236 235 239 244 250 258 260 266 272 310 318 326 337 330 325 286 292 240 253 197 203 238 233 259 151 20 32 344 315 298 293 303 297 302 312 305 313 302 317 318 329 331 326 324 319 316 315 320
238 240 232 232 233 235 233 233 235 240 245 251 252 256 260 288 299 305 324 300 326 305 278 155 175 221 222 228 228 225 254 300 304 284 276 279 305 286 311 293 287 327 311 286 304 328 328 326 324 317 316 321 329 332
240 242 234 230 234 231 229 234 234 238 243 243 247 245 251 275 289 299 312 296 284 312 316 306 267 250 233 195 212 215 229 257 282 275 262 277 285 266 288 290 304 342 335 324 307 327 324 318 321 313 326 332 331 338
235 242 237 237 232 227 233 232 236 235 236 235 240 238 237 255 284 312 235 241 199 357 305 293 161 186 204 207 211 223 238 252 260 273 284 295 294 271 282 289 293 308 302 329 322 323 332 321 329 333 332 332 336 337
235 236 231 229 228 232 227 234 235 229 225 232 235 238 232 238 247 217 253 194 202 345 271 279 224 189 199 205 230 239 231 249 251 267 275 275 293 321 287 285 292 301 312 315 321 327 320 326 330 346 339 336 332 330
234 232 232 227 231 235 235 227 235 235 231 232 227 227 232 233 245 251 250 257 275 251 252 268 253 187 181 217 225 218 235 236 235 245 260 270 284 292 270 279 288 305 316 321 325 322 319 334 341 339 335 342 337 335
231 229 230 225 226 231 231 227 231 232 228 215 220 228 232 219 214 216 238 252 256 213 280 234 253 88 174 236 264 232 227 264 258 238 256 265 238 222 254 299 292 297 316 319 328 325 335 338 341 336 340 342 339 336
229 223 225 222 222 225 227 223 225 217 215 209 207 199 201 193 182 182 229 190 209 213 228 251 252 255 196 237 225 230 223 241 264 261 215 238 261 281 256 244 271 300 317 322 327 335 341 348 338 334 342 345 341 339
222 228 224 222 221 222 216 208 214 212 211 201 174 155 159 155 159 181 222 206 188 219 215 231 223 226 193 254 287 303 317 317 275 263 177 247 263 274 233 254 282 320 308 322 332 337 342 341 338 336 340 342 339 342
220 222 221 220 218 218 217 217 210 205 199 192 169 137 139 152 197 214 219 210 207 222 180 199 192 206 139 204 250 261 243 230 257 259 219 254 258 161 199 238 269 304 330 332 331 332 341 348 347 339 340 333 337 336
222 222 225 222 216 211 210 226 212 201 193 152 129 142 153 169 206 222 202 197 189 202 164 177 151 178 146 207 238 265 247 253 293 247 270 289 74 206 187 192 305 332 330 330 331 330 338 348 345 343 339 330 339 336
219 216 219 217 212 205 212 207 199 187 166 146 152 149 198 185 217 209 223 201 190 177 160 172 158 187 169 182 247 225 233 257 241 196 253 274 98 139 271 327 341 331 329 330 336 332 350 350 348 339 342 339 341 342
218 218 219 215 208 203 209 202 196 182 160 154 162 192 208 224 227 226 244 218 174 164 158 180 160 197 176 215 214 222 247 236 243 247 283 356 180 185 197 323 331 329 325 326 333 333 343 346 342 340 346 351 340 345
211 218 219 206 202 197 204 190 175 171 144 161 194 207 222 220 242 209 204 187 183 169 167 165 151 196 195 208 217 212 226 254 280 53 119 213 155 324 335 324 317 317 321 322 326 327 337 339 342 349 350 353 345 352
198 213 212 192 189 197 196 176 173 156 180 185 230 211 241 210 204 207 220 212 205 175 168 167 189 183 219 218 226 244 260 267 328 47 213 177 177 192 291 306 308 311 316 319 318 323 329 339 340 348 357 358 354 360
205 216 199 190 183 168 159 167 165 176 146 208 218 182 206 196 189 200 219 215 216 196 194 180 229 209 208 232 245 264 284 313 279 261 255 204 207 268 298 303 311 305 310 305 316 316 335 346 354 356 359 358 352 349
211 210 200 195 180 159 136 150 156 175 198 177 188 177 202 217 210 222 218 205 200 199 171 183 226 229 241 264 279 281 287 296 294 305 288 268 254 278 288 289 302 301 304 303 298 321 331 346 324 3 1 353 356 354
190 174 171 164 169 121 116 143 151 169 179 169 165 189 199 219 230 226 216 202 198 202 208 219 235 239 247 265 275 276 288 304 295 290 288 289 290 286 285 307 306 310 301 293 292 337 349 20 7 356 7 3 8 18
144 147 153 153 131 100 106 146 165 176 159 179 183 188 194 203 216 209 211 219 218 217 234 238 249 255 262 262 268 286 291 295 294 293 296 298 304 313 305 301 297 287 292 301 0 21 39 27 21 9 8 16 12 18
134 134 120 105 86 98 99 174 162 169 181 177 175 183 194 199 209 217 213 212 227 226 230 240 246 249 251 253 259 263 267 268 267 271 278 280 275 275 271 272 283 282 275 304 20 20 23 11 46 33 16 26 20 25
138 134 82 64 82 97 145 156 165 199 178 183 178 191 209 217 214 208 210 220 227 229 235 236 238 243 253 264 267 262 261 263 264 267 267 262 261 267 266 267 270 274 294 327 18 59 53 32 68 77 31 33 46 47
102 115 143 145 136 122 141 151 165 197 200 198 186 205 206 211 204 212 236 243 244 244 242 236 239 243 241 244 248 246 243 242 249 253 251 255 257 258 264 262 260 273 293 121 90 73 116 70 108 102 52 47 68 59
81 72 97 7 132 137 157 167 185 192 201 189 194 203 210 207 220 230 238 242 245 242 243 218 223 219 227 230 224 217 220 229 219 231 235 249 266 244 245 261 276 230 223 178 213 182 131 96 91 107 93 55 63 77
129 159 168 172 157 173 189 171 185 193 201 184 192 195 218 192 226 237 250 259 50 98 67 46 221 223 230 237 224 207 189 207 227 247 269 280 289 308 312 272 263 187 287 179 161 153 137 108 105 114 113 112 81 63
209 154 186 181 164 182 211 194 150 170 194 185 186 183 191 213 237 154 93 80 96 126 159 280 79 74 277 311 177 172 185 195 220 330 321 291 278 248 274 298 248 5 251 171 177 156 119 105 98 92 92 97 93 88
270 154 160 179 159 156 151 15 141 164 209 227 201 184 197 232 27 74 99 107 122 103 223 249 172 1 2 344 169 169 168 183 213 236 247 173 113 156 107 70 92 340 202 149 162 144 128 111 105 103 98 96 97 94
228 222 186 172 162 137 169 208 235 182 19 348 239 219 300 50 88 112 111 115 298 295 241 246 269 277 309 340 112 195 176 186 204 191 179 204 186 198 236 164 151 148 111 114 144 135 125 118 114 109 106 103 97 92
221 213 212 174 151 184 209 214 253 324 309 306 303 287 291 334 83 24 288 277 268 255 245 245 248 253 250 245 228 199 198 224 201 208 149 236 196 200 148 169 168 156 138 123 126 127 129 125 125 125 116 110 114 112
342 68 74 93 50 246 259 184 212 217 304 313 287 281 274 291 296 290 307 288 265 261 254 246 241 233 230 230 230 216 210 221 205 207 166 216 345 340 311 318 180 175 163 144 136 144 150 153 144 134 132 128 123 113
185 195 183 196 215 214 238 221 190 170 244 229 257 245 263 262 255 277 343 350 228 225 227 232 228 227 207 207 223 230 234 199 218 200 200 221 248 280 253 262 135 163 143 143 153 151 160 149 137 137 139 134 136 115
183 195 214 266 209 170 157 146 154 137 135 123 67 52 37 8 354 330 17 38 32 209 206 195 202 208 201 191 208 209 214 202 232 206 201 212 223 217 161 94 136 169 161 151 147 148 148 136 130 125 116 112 113 118
Wind_Speed_850mb
65 63 57 56 53 49 45 41 35 31 28 24 23 17 14 15 15 15 9 24 12 11 25 9 4 9 8 9 11 15 15 9 17 15 10 10 13 11 18 19 24 25 12 19 14 23 13 59 38 11 22 52 58 60
59 63 55 53 52 50 47 45 42 36 29 25 23 19 13 14 14 10 9 24 29 9 13 16 22 22 14 7 10 7 10 11 12 8 10 8 20 14 21 18 17 7 14 9 12 14 41 44 38 48 49 55 61 66
56 53 51 45 45 44 45 45 45 40 33 29 26 25 16 15 13 11 9 13 23 19 32 25 14 9 9 11 11 9 9 6 1 6 16 8 13 10 13 18 23 28 30 14 23 18 33 43 51 56 60 63 64 60
52 58 55 56 49 43 40 41 44 42 38 32 31 28 23 17 15 14 7 14 13 15 12 9 12 5 10 11 12 17 11 8 11 14 22 15 12 16 16 27 23 20 24 10 22 31 53 37 55 61 64 63 59 63
53 54 53 53 53 51 46 41 44 44 42 36 37 31 25 17 16 17 22 10 8 3 13 14 15 18 13 11 12 13 14 13 18 22 20 17 31 14 22 26 15 12 8 7 16 40 34 50 56 58 55 65 60 56
63 59 57 58 59 49 52 48 45 47 42 40 38 32 26 16 14 10 4 4 7 9 10 8 5 12 15 14 15 17 19 19 20 24 24 21 30 17 10 15 31 21 24 30 25 39 45 52 54 55 60 59 54 56
67 62 56 55 53 48 50 53 46 50 47 41 42 35 28 26 20 11 4 15 15 11 8 13 8 15 18 19 21 24 23 21 25 27 25 33 24 10 13 19 36 22 26 24 31 39 48 49 47 55 58 63 60 59
64 60 57 50 50 55 55 49 48 45 50 43 45 39 38 32 28 27 29 27 22 7 10 8 7 14 25 20 28 30 26 26 27 29 27 28 19 15 7 16 7 17 21 28 37 40 47 49 54 56 60 57 66 63
53 59 59 52 51 49 52 51 47 49 46 48 46 42 40 34 19 19 23 20 15 11 10 12 12 3 15 18 14 11 19 16 28 19 30 15 10 10 22 18 13 16 22 33 40 46 51 54 52 59 54 61 60 66
43 56 59 56 49 50 49 50 48 46 49 57 50 20 11 16 19 13 6 8 10 14 16 15 25 14 13 15 14 14 14 13 11 16 13 9 19 32 20 21 16 20 27 32 41 47 53 43 50 49 45 58 57 63
44 46 53 54 54 47 47 43 47 49 43 58 24 17 20 22 16 11 12 16 18 12 19 21 35 19 17 10 9 1 6 9 9 10 10 6 7 17 10 11 14 19 28 33 37 45 35 42 52 44 46 59 55 60
54 46 44 49 52 51 38 39 51 48 45 39 26 34 33 12 10 11 9 14 16 12 24 29 26 30 12 4 10 8 7 7 9 2 6 7 9 10 13 7 14 19 29 37 43 46 41 38 42 41 49 50 56 60
51 51 47 47 47 50 39 37 49 56 53 46 13 19 15 12 10 11 16 13 13 17 26 34 24 23 10 10 11 5 5 10 15 8 10 9 15 11 9 3 17 23 30 37 43 48 37 38 41 45 57 56 48 58
49 49 44 46 47 52 34 43 69 62 37 14 18 13 13 11 15 17 23 17 21 29 39 38 33 19 13 10 9 8 9 8 8 6 10 12 15 11 11 14 19 28 32 37 41 49 38 40 36 38 47 45 44 52
46 49 45 46 49 54 37 69 83 70 18 16 16 13 17 26 32 28 30 20 31 35 40 33 21 16 11 6 8 9 7 9 5 9 9 10 7 13 5 11 22 28 34 39 41 49 37 33 30 33 48 41 47 49
40 38 51 46 48 50 50 92 81 34 17 16 15 8 20 22 31 17 31 33 32 40 38 28 12 8 11 8 13 15 9 11 17 5 2 5 9 14 9 16 25 31 35 42 47 48 35 28 29 29 47 43 45 41
40 43 40 50 50 50 84 88 49 13 17 10 11 31 17 25 23 19 10 16 28 33 18 11 15 13 11 10 21 14 21 20 23 9 9 13 13 7 17 26 32 37 37 42 46 45 34 22 23 34 45 44 38 36
51 41 43 52 71 104 70 27 21 15 7 14 12 24 23 18 20 27 38 27 36 30 29 9 14 18 12 16 17 14 15 9 14 17 11 17 14 13 22 26 34 39 41 44 39 38 25 21 19 32 38 39 39 37
46 42 52 66 90 63 16 14 12 14 14 19 12 20 21 27 30 32 39 36 37 28 21 13 10 16 18 27 30 33 33 27 14 21 18 20 20 19 23 30 31 34 34 39 44 20 18 19 12 27 47 34 36 38
38 54 88 95 85 15 12 10 18 8 11 16 20 18 27 36 32 27 24 30 31 31 18 12 20 27 23 22 20 21 24 22 24 27 31 32 26 22 29 26 30 32 35 41 8 17 9 14 11 26 47 32 34 37
97 81 81 66 34 15 10 13 12 13 14 17 33 32 25 30 31 34 34 32 32 40 29 36 38 36 29 28 27 23 26 27 29 31 34 32 27 28 31 34 36 34 32 34 12 17 20 18 7 22 47 28 28 29
73 68 50 29 12 9 7 7 10 17 16 19 35 30 20 31 32 36 34 35 40 32 38 46 44 39 37 37 33 29 31 28 30 34 38 37 36 34 29 28 30 28 33 15 11 12 13 11 4 13 40 31 26 28
62 45 19 13 9 6 7 14 9 13 11 14 21 16 19 22 33 34 24 37 46 47 45 45 41 39 38 34 31 31 27 25 28 29 29 29 28 28 30 32 32 24 16 9 8 10 4 14 5 12 32 30 26 31
25 9 10 12 8 7 13 7 6 7 8 11 11 13 13 14 19 18 15 28 33 31 30 32 32 36 32 31 33 34 33 31 29 26 26 26 28 23 26 25 34 15 3 1 5 4 5 9 12 18 28 35 25 28
7 6 8 3 7 11 10 13 12 11 12 13 13 8 8 15 8 11 14 23 27 28 26 28 29 30 33 32 33 27 23 26 28 26 24 24 31 19 22 19 15 8 10 10 2 16 11 16 18 19 13 27 40 28
4 8 11 13 13 10 11 12 17 14 10 15 11 9 5 4 6 11 7 12 9 11 4 5 16 16 21 24 23 21 24 23 22 16 15 17 16 5 3 4 6 5 5 7 10 14 18 16 17 15 18 14 20 29
4 8 15 15 17 16 8 8 13 16 11 8 6 9 7 7 10 1 11 9 12 7 6 13 11 1 7 32 19 17 14 14 11 3 10 26 18 4 4 9 5 5 21 30 24 17 20 21 21 22 24 24 22 21
6 4 11 16 8 11 3 6 4 5 4 4 5 11 7 7 6 8 10 10 11 6 5 5 1 5 11 8 3 19 16 11 8 9 5 13 12 17 7 11 13 4 6 13 12 24 25 26 25 26 26 27 26 25
9 8 6 10 12 6 5 5 6 4 2 3 3 5 3 9 11 14 12 4 4 4 4 3 3 4 6 8 2 10 13 13 17 16 10 12 17 16 7 9 11 16 25 26 36 24 30 29 28 27 26 25 26 25
7 6 5 3 9 8 10 9 6 5 3 5 5 11 12 5 7 3 12 22 22 19 20 20 19 18 15 14 13 12 9 12 8 12 7 2 10 13 5 7 11 23 28 28 28 30 35 28 28 28 27 26 25 29
3 1 5 3 1 5 3 2 4 5 3 5 5 5 6 10 28 15 15 17 22 28 29 31 35 37 32 27 25 22 22 18 14 7 9 8 4 6 10 8 20 36 29 26 23 25 28 27 25 22 21 24 24 29
9 9 8 8 5 10 14 7 6 3 1 3 3 3 2 2 5 6 14 6 8 14 19 21 25 31 40 42 30 25 17 10 22 18 16 15 12 11 2 13 32 40 29 25 25 26 23 24 28 24 19 17 28 22
9 8 9 4 5 8 12 11 10 8 5 3 4 4 4 4 4 8 20 25 13 6 14 16 15 23 34 40 25 20 17 14 12 13 17 19 17 9 9 4 20 23 22 20 23 24 25 29 26 23 24 24 24 23
Wind_Direction_850mb
241 243 245 246 249 249 246 248 253 262 269 277 298 301 320 334 346 11 291 327 347 289 299 317 304 307 299 275 303 16 294 183 261 275 309 336 314 326 318 312 312 306 292 298 313 304 308 348 356 357 303 309 317 321
250 244 240 241 244 243 242 241 247 253 258 265 277 278 296 321 335 18 27 339 325 278 269 299 283 251 242 272 291 267 305 287 347 311 342 324 318 317 321 309 319 319 325 301 291 282 304 335 333 331 326 320 318 317
238 234 234 235 230 237 236 235 239 244 250 258 260 266 272 310 318 326 337 330 325 286 292 240 253 197 203 238 233 259 151 20 32 344 315 298 293 303 297 302 312 305 313 302 317 318 329 331 326 324 319 316 315 320
238 240 232 232 233 235 233 233 235 240 245 251 252 256 260 288 299 305 324 300 326 305 278 155 175 221 222 228 228 225 254 300 304 284 276 279 305 286 311 293 287 327 311 286 304 328 328 326 324 317 316 321 329 332
240 242 234 230 234 231 229 234 234 238 243 243 247 245 251 275 289 299 312 296 284 312 316 306 267 250 233 195 212 215 229 257 282 275 262 277 285 266 288 290 304 342 335 324 307 327 324 318 321 313 326 332 331 338
235 242 237 237 232 227 233 232 236 235 236 235 240 238 237 255 284 312 235 241 199 357 305 293 161 186 204 207 211 223 238 252 260 273 284 295 294 271 282 289 293 308 302 329 322 323 332 321 329 333 332 332 336 337
235 236 231 229 228 232 227 234 235 229 225 232 235 238 232 238 247 217 253 194 202 345 271 279 224 189 199 205 230 239 231 249 251 267 275 275 293 321 287 285 292 301 312 315 321 327 320 326 330 346 339 336 332 330
234 232 232 227 231 235 235 227 235 235 231 232 227 227 232 233 245 251 250 257 275 251 252 268 253 187 181 217 225 218 235 236 235 245 260 270 284 292 270 279 288 305 316 321 325 322 319 334 341 339 335 342 337 335
231 229 230 225 226 231 231 227 231 232 228 215 220 228 232 219 214 216 238 252 256 213 280 234 253 88 174 236 264 232 227 264 258 238 256 265 238 222 254 299 292 297 316 319 328 325 335 338 341 336 340 342 339 336
229 223 225 222 222 225 227 223 225 217 215 209 207 199 201 193 182 182 229 190 209 213 228 251 252 255 196 237 225 230 223 241 264 261 215 238 261 281 256 244 271 300 317 322 327 335 341 348 338 334 342 345 341 339
222 228 224 222 221 222 216 208 214 212 211 201 174 155 159 155 159 181 222 206 188 219 215 231 223 226 193 254 287 303 317 317 275 263 177 247 263 274 233 254 282 320 308 322 332 337 342 341 338 336 340 342 339 342
220 222 221 220 218 218 217 217 210 205 199 192 169 137 139 152 197 214 219 210 207 222 180 199 192 206 139 204 250 261 243 230 257 259 219 254 258 161 199 238 269 304 330 332 331 332 341 348 347 339 340 333 337 336
222 222 225 222 216 211 210 226 212 201 193 152 129 142 153 169 206 222 202 197 189 202 164 177 151 178 146 207 238 265 247 253 293 247 270 289 74 206 187 192 305 332 330 330 331 330 338 348 345 343 339 330 339 336
219 216 219 217 212 205 212 207 199 187 166 146 152 149 198 185 217 209 223 201 190 177 160 172 158 187 169 182 247 225 233 257 241 196 253 274 98 139 271 327 341 331 329 330 336 332 350 350 348 339 342 339 341 342
218 218 219 215 208 203 209 202 196 182 160 154 162 192 208 224 227 226 244 218 174 164 158 180 160 197 176 215 214 222 247 236 243 247 283 356 180 185 197 323 331 329 325 326 333 333 343 346 342 340 346 351 340 345
211 218 219 206 202 197 204 190 175 171 144 161 194 207 222 220 242 209 204 187 183 169 167 165 151 196 195 208 217 212 226 254 280 53 119 213 155 324 335 324 317 317 321 322 326 327 337 339 342 349 350 353 345 352
198 213 212 192 189 197 196 176 173 156 180 185 230 211 241 210 204 207 220 212 205 175 168 167 189 183 219 218 226 244 260 267 328 47 213 177 177 192 291 306 308 311 316 319 318 323 329 339 340 348 357 358 354 360
205 216 199 190 183 168 159 167 165 176 146 208 218 182 206 196 189 200 219 215 216 196 194 180 229 209 208 232 245 264 284 313 279 261 255 204 207 268 298 303 311 305 310 305 316 316 335 346 354 356 359 358 352 349
211 210 200 195 180 159 136 150 156 175 198 177 188 177 202 217 210 222 218 205 200 199 171 183 226 229 241 264 279 281 287 296 294 305 288 268 254 278 288 289 302 301 304 303 298 321 331 346 324 3 1 353 356 354
190 174 171 164 169 121 116 143 151 169 179 169 165 189 199 219 230 226 216 202 198 202 208 219 235 239 247 265 275 276 288 304 295 290 288 289 290 286 285 307 306 310 301 293 292 337 349 20 7 356 7 3 8 18
144 147 153 153 131 100 106 146 165 176 159 179 183 188 194 203 216 209 211 219 218 217 234 238 249 255 262 262 268 286 291 295 294 293 296 298 304 313 305 301 297 287 292 301 0 21 39 27 21 9 8 16 12 18
134 134 120 105 86 98 99 174 162 169 181 177 175 183 194 199 209 217 213 212 227 226 230 240 246 249 251 253 259 263 267 268 267 271 278 280 275 275 271 272 283 282 275 304 20 20 23 11 46 33 16 26 20 25
138 134 82 64 82 97 145 156 165 199 178 183 178 191 209 217 214 208 210 220 227 229 235 236 238 243 253 264 267 262 261 263 264 267 267 262 261 267 266 267 270 274 294 327 18 59 53 32 68 77 31 33 46 47
102 115 143 145 136 122 141 151 165 197 200 198 186 205 206 211 204 212 236 243 244 244 242 236 239 243 241 244 248 246 243 242 249 253 251 255 257 258 264 262 260 273 293 121 90 73 116 70 108 102 52 47 68 59
81 72 97 7 132 137 157 167 185 192 201 189 194 203 210 207 220 230 238 242 245 242 243 218 223 219 227 230 224 217 220 229 219 231 235 249 266 244 245 261 276 230 223 178 213 182 131 96 91 107 93 55 63 77
129 159 168 172 157 173 189 171 185 193 201 184 192 195 218 192 226 237 250 259 50 98 67 46 221 223 230 237 224 207 189 207 227 247 269 280 289 308 312 272 263 187 287 179 161 153 137 108 105 114 113 112 81 63
209 154 186 181 164 182 211 194 150 170 194 185 186 183 191 213 237 154 93 80 96 126 159 280 79 74 277 311 177 172 185 195 220 330 321 291 278 248 274 298 248 5 251 171 177 156 119 105 98 92 92 97 93 88
270 154 160 179 159 156 151 15 141 164 209 227 201 184 197 232 27 74 99 107 122 103 223 249 172 1 2 344 169 169 168 183 213 236 247 173 113 156 107 70 92 340 202 149 162 144 128 111 105 103 98 96 97 94
228 222 186 172 162 137 169 208 235 182 19 348 239 219 300 50 88 112 111 115 298 295 241 246 269 277 309 340 112 195 176 186 204 191 179 204 186 198 236 164 151 148 111 114 144 135 125 118 114 109 106 103 97 92
221 213 212 174 151 184 209 214 253 324 309 306 303 287 291 334 83 24 288 277 268 255 245 245 248 253 250 245 228 199 198 224 201 208 149 236 196 200 148 169 168 156 138 123 126 127 129 125 125 125 116 110 114 112
342 68 74 93 50 246 259 184 212 217 304 313 287 281 274 291 296 290 307 288 265 261 254 246 241 233 230 230 230 216 210 221 205 207 166 216 345 340 311 318 180 175 163 144 136 144 150 153 144 134 132 128 123 113
185 195 183 196 215 214 238 221 190 170 244 229 257 245 263 262 255 277 343 350 228 225 227 232 228 227 207 207 223 230 234 199 218 200 200 221 248 280 253 262 135 163 143 143 153 151 160 149 137 137 139 134 136 115
183 195 214 266 209 170 157 146 154 137 135 123 67 52 37 8 354 330 17 38 32 209 206 195 202 208 201 191 208 209 214 202 232 206 201 212 223 217 161 94 136 169 161 151 147 148 148 136 130 125 116 112 113 118